Tracking 35334 objects as of 12-Sep-2026
HD Live streaming from Space Station
objects crossing your sky now

OPS 0856 DEB

Track OPS 0856 DEB now!
10-day predictions


NORAD ID: 25826
Int'l Code: 1966-077T
Launch date: August 19, 1966
Source: United States (US)
Launch site: AIR FORCE WESTERN TEST RANGE (AFWTR)

Note: This is SATELLITE DEBRIS
Your satellite tracking list
Your tracking list is empty




NASA's NSSDC Master Catalog

Two Line Element Set (TLE):
1 25826U 66077T   22170.94163091  .00000485  00000-0  43838-1 0  9998
2 25826  88.4121  42.1291 1757660 307.2863  38.0066  8.73560252746085
Source of the keplerian elements: AFSPC